Location: Battery Park City
(40.7115°N, 74.0163°W)
Time: 09:40:34
(UTC+00:00)

Envisat - Pass Details

Date: 08 December 2019
Orbit: 764 x 766 km, 98.1° (Epoch: 28 January)

Event Time Altitude Azimuth Distance (km) Brightness Sun altitude
Rises 22:09:58 0° 143° (SE) 3,220 6.1 -7.9°
Reaches altitude 10° 22:12:24 10° 135° (SE) 2,298 5.3 -8.3°
Maximum altitude 22:17:01 37° 69° (ENE) 1,186 3.5 -9.1°
Drops below altitude 10° 22:21:39 10° 4° (N) 2,312 5.2 -9.9°
Sets 22:24:06 0° 356° (N) 3,243 6.1 -10.3°
